Time,TemperatureF,DewpointF,PressureIn,WindDirection,WindDirectionDegrees,WindSpeedMPH,WindSpeedGustMPH,Humidity,HourlyPrecipIn,Conditions,Clouds,dailyrainin,SoftwareType,DateUTC
2013-07-30 00:01:00,77.2,74.0,30.18,North,11,4.0,-999.0,90,-99.99,,,0.00,weatherlink.com 1.10,2013-07-30 04:01:00,
2013-07-30 00:16:00,76.7,73.0,30.18,North,11,3.0,-999.0,89,-99.99,,,0.00,weatherlink.com 1.10,2013-07-30 04:16:00,
2013-07-30 00:31:00,76.4,73.0,30.18,North,11,3.0,-999.0,89,-99.99,,,0.00,weatherlink.com 1.10,2013-07-30 04:31:00,
2013-07-30 00:46:00,76.2,73.0,30.18,North,11,4.0,-999.0,89,-99.99,,,0.00,weatherlink.com 1.10,2013-07-30 04:46:00,
2013-07-30 01:01:00,76.0,73.0,30.18,North,11,4.0,-999.0,89,-99.99,,,0.00,weatherlink.com 1.10,2013-07-30 05:01:00,
2013-07-30 01:16:00,75.7,72.0,30.18,North,11,2.0,-999.0,89,-99.99,,,0.00,weatherlink.com 1.10,2013-07-30 05:16:00,
2013-07-30 01:31:00,75.7,72.0,30.18,North,11,5.0,-999.0,89,-99.99,,,0.00,weatherlink.com 1.10,2013-07-30 05:31:00,
2013-07-30 01:46:00,76.2,73.0,30.18,North,9,5.0,-999.0,89,-99.99,,,0.00,weatherlink.com 1.10,2013-07-30 05:46:00,
2013-07-30 02:01:00,75.9,73.0,30.18,North,11,6.0,-999.0,89,-99.99,,,0.00,weatherlink.com 1.10,2013-07-30 06:01:00,
2013-07-30 02:16:00,75.7,72.0,30.18,North,11,3.0,-999.0,89,-99.99,,,0.00,weatherlink.com 1.10,2013-07-30 06:16:00,
2013-07-30 02:31:00,75.9,73.0,30.17,North,11,5.0,-999.0,90,-99.99,,,0.00,weatherlink.com 1.10,2013-07-30 06:31:00,
2013-07-30 02:46:00,75.7,73.0,30.17,North,11,4.0,-999.0,90,-99.99,,,0.00,weatherlink.com 1.10,2013-07-30 06:46:00,
2013-07-30 03:01:00,75.7,73.0,30.17,North,11,7.0,-999.0,90,-99.99,,,0.00,weatherlink.com 1.10,2013-07-30 07:01:00,
2013-07-30 03:16:00,75.4,72.0,30.18,North,11,3.0,-999.0,89,-99.99,,,0.00,weatherlink.com 1.10,2013-07-30 07:16:00,
2013-07-30 03:31:00,75.5,73.0,30.18,North,11,1.0,-999.0,90,-99.99,,,0.00,weatherlink.com 1.10,2013-07-30 07:31:00,
2013-07-30 03:46:00,75.2,72.0,30.18,North,11,3.0,-999.0,89,-99.99,,,0.00,weatherlink.com 1.10,2013-07-30 07:46:00,
2013-07-30 04:01:00,74.8,72.0,30.17,North,11,4.0,-999.0,90,-99.99,,,0.00,weatherlink.com 1.10,2013-07-30 08:01:00,
2013-07-30 04:16:00,74.6,72.0,30.18,North,11,3.0,-999.0,90,-99.99,,,0.00,weatherlink.com 1.10,2013-07-30 08:16:00,
2013-07-30 04:31:00,74.6,72.0,30.17,North,11,3.0,-999.0,90,-99.99,,,0.00,weatherlink.com 1.10,2013-07-30 08:31:00,
2013-07-30 04:46:00,74.8,72.0,30.17,North,11,2.0,-999.0,90,-99.99,,,0.00,weatherlink.com 1.10,2013-07-30 08:46:00,
2013-07-30 05:01:00,75.1,72.0,30.17,North,11,4.0,-999.0,90,-99.99,,,0.00,weatherlink.com 1.10,2013-07-30 09:01:00,
2013-07-30 05:31:00,74.9,72.0,30.17,North,11,3.0,-999.0,91,-99.99,,,0.00,weatherlink.com 1.10,2013-07-30 09:31:00,
2013-07-30 05:46:00,74.4,72.0,30.17,North,11,2.0,-999.0,91,-99.99,,,0.00,weatherlink.com 1.10,2013-07-30 09:46:00,
2013-07-30 06:16:00,74.5,72.0,30.18,NNE,12,3.0,-999.0,91,-99.99,,,0.00,weatherlink.com 1.10,2013-07-30 10:16:00,
2013-07-30 06:31:00,74.2,72.0,30.18,North,5,2.0,-999.0,92,-99.99,,,0.00,weatherlink.com 1.10,2013-07-30 10:31:00,
2013-07-30 06:46:00,74.2,72.0,30.18,North,9,0.0,-999.0,92,-99.99,,,0.00,weatherlink.com 1.10,2013-07-30 10:46:00,
2013-07-30 07:01:00,74.3,72.0,30.19,North,5,0.0,-999.0,92,-99.99,,,0.00,weatherlink.com 1.10,2013-07-30 11:01:00,
2013-07-30 07:16:00,74.4,72.0,30.19,NNE,12,3.0,-999.0,92,-99.99,,,0.00,weatherlink.com 1.10,2013-07-30 11:16:00,
2013-07-30 07:31:00,74.4,72.0,30.20,North,9,1.0,-999.0,92,-99.99,,,0.00,weatherlink.com 1.10,2013-07-30 11:31:00,
2013-07-30 07:46:00,74.7,72.0,30.21,North,5,1.0,-999.0,92,-99.99,,,0.00,weatherlink.com 1.10,2013-07-30 11:46:00,
2013-07-30 08:01:00,74.8,72.0,30.21,North,5,2.0,-999.0,92,-99.99,,,0.00,weatherlink.com 1.10,2013-07-30 12:01:00,
2013-07-30 08:16:00,75.2,73.0,30.21,North,5,1.0,-999.0,91,-99.99,,,0.00,weatherlink.com 1.10,2013-07-30 12:16:00,
2013-07-30 08:31:00,75.1,73.0,30.21,North,5,0.0,-999.0,92,-99.99,,,0.00,weatherlink.com 1.10,2013-07-30 12:31:00,
2013-07-30 08:46:00,75.6,73.0,30.22,North,5,4.0,-999.0,92,-99.99,,,0.00,weatherlink.com 1.10,2013-07-30 12:46:00,
2013-07-30 09:01:00,76.0,74.0,30.22,North,5,4.0,-999.0,92,-99.99,,,0.00,weatherlink.com 1.10,2013-07-30 13:01:00,
2013-07-30 09:16:00,76.5,74.0,30.22,North,5,2.0,-999.0,92,-99.99,,,0.00,weatherlink.com 1.10,2013-07-30 13:16:00,
2013-07-30 09:31:00,76.6,74.0,30.22,North,5,5.0,-999.0,91,-99.99,,,0.00,weatherlink.com 1.10,2013-07-30 13:31:00,
2013-07-30 09:46:00,77.4,75.0,30.22,North,5,5.0,-999.0,91,-99.99,,,0.00,weatherlink.com 1.10,2013-07-30 13:46:00,
2013-07-30 10:01:00,77.7,75.0,30.22,North,5,1.0,-999.0,90,-99.99,,,0.00,weatherlink.com 1.10,2013-07-30 14:01:00,
2013-07-30 10:16:00,78.0,75.0,30.22,North,5,8.0,-999.0,90,-99.99,,,0.00,weatherlink.com 1.10,2013-07-30 14:16:00,
2013-07-30 10:31:00,78.8,75.0,30.23,North,5,0.0,-999.0,89,-99.99,,,0.00,weatherlink.com 1.10,2013-07-30 14:31:00,
2013-07-30 10:46:00,78.4,75.0,30.23,North,9,5.0,-999.0,89,-99.99,,,0.00,weatherlink.com 1.10,2013-07-30 14:46:00,
2013-07-30 11:01:00,78.2,75.0,30.22,North,9,7.0,-999.0,90,-99.99,,,0.00,weatherlink.com 1.10,2013-07-30 15:01:00,
2013-07-30 11:16:00,78.5,75.0,30.22,North,9,7.0,-999.0,90,-99.99,,,0.00,weatherlink.com 1.10,2013-07-30 15:16:00,
2013-07-30 11:31:00,79.2,76.0,30.21,North,9,5.0,-999.0,90,-99.99,,,0.00,weatherlink.com 1.10,2013-07-30 15:31:00,
2013-07-30 11:46:00,79.5,76.0,30.21,North,9,6.0,-999.0,88,-99.99,,,0.00,weatherlink.com 1.10,2013-07-30 15:46:00,
2013-07-30 12:01:00,79.8,76.0,30.21,North,9,4.0,-999.0,87,-99.99,,,0.00,weatherlink.com 1.10,2013-07-30 16:01:00,
2013-07-30 12:16:00,80.3,75.0,30.20,North,9,4.0,-999.0,84,-99.99,,,0.00,weatherlink.com 1.10,2013-07-30 16:16:00,
2013-07-30 12:31:00,80.3,75.0,30.20,North,9,4.0,-999.0,84,-99.99,,,0.00,weatherlink.com 1.10,2013-07-30 16:31:00,
2013-07-30 12:46:00,80.9,76.0,30.21,North,9,8.0,-999.0,86,-99.99,,,0.00,weatherlink.com 1.10,2013-07-30 16:46:00,
2013-07-30 13:02:00,80.9,76.0,30.21,North,9,7.0,-999.0,86,-99.99,,,0.00,weatherlink.com 1.10,2013-07-30 17:02:00,
2013-07-30 13:17:00,81.2,76.0,30.21,North,9,12.0,-999.0,85,-99.99,,,0.00,weatherlink.com 1.10,2013-07-30 17:17:00,
2013-07-30 13:32:00,80.6,76.0,30.20,North,9,11.0,-999.0,85,-99.99,,,0.00,weatherlink.com 1.10,2013-07-30 17:32:00,
2013-07-30 13:47:00,80.9,76.0,30.20,North,9,9.0,-999.0,85,-99.99,,,0.00,weatherlink.com 1.10,2013-07-30 17:47:00,
2013-07-30 14:32:00,81.1,74.0,30.19,North,9,4.0,-999.0,80,-99.99,,,0.00,weatherlink.com 1.10,2013-07-30 18:32:00,
2013-07-30 14:47:00,80.9,75.0,30.18,North,9,4.0,-999.0,81,-99.99,,,0.00,weatherlink.com 1.10,2013-07-30 18:47:00,
2013-07-30 15:02:00,81.0,75.0,30.18,North,9,4.0,-999.0,81,-99.99,,,0.00,weatherlink.com 1.10,2013-07-30 19:02:00,
2013-07-30 15:17:00,80.7,74.0,30.18,North,9,7.0,-999.0,80,-99.99,,,0.00,weatherlink.com 1.10,2013-07-30 19:17:00,
2013-07-30 15:32:00,80.8,74.0,30.18,North,9,5.0,-999.0,79,-99.99,,,0.00,weatherlink.com 1.10,2013-07-30 19:32:00,
2013-07-30 15:47:00,80.8,74.0,30.18,North,9,8.0,-999.0,80,-99.99,,,0.00,weatherlink.com 1.10,2013-07-30 19:47:00,
2013-07-30 16:02:00,80.9,75.0,30.18,North,9,8.0,-999.0,82,-99.99,,,0.00,weatherlink.com 1.10,2013-07-30 20:02:00,
2013-07-30 16:17:00,80.0,74.0,30.17,North,9,7.0,-999.0,82,-99.99,,,0.00,weatherlink.com 1.10,2013-07-30 20:17:00,
2013-07-30 16:32:00,80.1,74.0,30.18,North,9,9.0,-999.0,81,-99.99,,,0.00,weatherlink.com 1.10,2013-07-30 20:32:00,
2013-07-30 16:47:00,80.5,75.0,30.17,North,9,6.0,-999.0,82,-99.99,,,0.00,weatherlink.com 1.10,2013-07-30 20:47:00,
2013-07-30 17:02:00,80.5,74.0,30.17,North,9,5.0,-999.0,81,-99.99,,,0.00,weatherlink.com 1.10,2013-07-30 21:02:00,
2013-07-30 17:16:00,80.6,74.0,30.17,North,9,6.0,-999.0,81,-99.99,,,0.00,weatherlink.com 1.10,2013-07-30 21:16:00,
2013-07-30 17:32:00,80.3,74.0,30.17,North,9,6.0,-999.0,81,-99.99,,,0.00,weatherlink.com 1.10,2013-07-30 21:32:00,
2013-07-30 17:47:00,80.6,74.0,30.17,North,9,6.0,-999.0,81,-99.99,,,0.00,weatherlink.com 1.10,2013-07-30 21:47:00,
2013-07-30 18:02:00,80.4,74.0,30.16,North,9,6.0,-999.0,81,-99.99,,,0.00,weatherlink.com 1.10,2013-07-30 22:02:00,
2013-07-30 18:17:00,80.3,74.0,30.16,North,9,6.0,-999.0,81,-99.99,,,0.00,weatherlink.com 1.10,2013-07-30 22:17:00,
2013-07-30 18:32:00,79.9,74.0,30.16,North,9,5.0,-999.0,82,-99.99,,,0.00,weatherlink.com 1.10,2013-07-30 22:32:00,
2013-07-30 18:47:00,79.7,74.0,30.16,North,9,2.0,-999.0,82,-99.99,,,0.00,weatherlink.com 1.10,2013-07-30 22:47:00,
2013-07-30 19:02:00,79.7,74.0,30.17,North,9,1.0,-999.0,83,-99.99,,,0.00,weatherlink.com 1.10,2013-07-30 23:02:00,
2013-07-30 19:17:00,79.5,74.0,30.17,North,9,1.0,-999.0,83,-99.99,,,0.00,weatherlink.com 1.10,2013-07-30 23:17:00,
2013-07-30 19:32:00,79.5,74.0,30.16,North,9,3.0,-999.0,83,-99.99,,,0.00,weatherlink.com 1.10,2013-07-30 23:32:00,
2013-07-30 19:47:00,79.2,74.0,30.17,North,9,3.0,-999.0,83,-99.99,,,0.00,weatherlink.com 1.10,2013-07-30 23:47:00,
2013-07-30 20:02:00,79.3,74.0,30.17,North,9,0.0,-999.0,83,-99.99,,,0.00,weatherlink.com 1.10,2013-07-31 00:02:00,
2013-07-30 20:17:00,79.5,74.0,30.17,North,9,0.0,-999.0,82,-99.99,,,0.00,weatherlink.com 1.10,2013-07-31 00:17:00,
2013-07-30 20:32:00,79.4,74.0,30.17,North,9,0.0,-999.0,82,-99.99,,,0.00,weatherlink.com 1.10,2013-07-31 00:32:00,
2013-07-30 20:47:00,79.4,74.0,30.17,North,9,0.0,-999.0,82,-99.99,,,0.00,weatherlink.com 1.10,2013-07-31 00:47:00,
2013-07-30 21:02:00,79.4,74.0,30.17,North,5,4.0,-999.0,83,-99.99,,,0.00,weatherlink.com 1.10,2013-07-31 01:02:00,
2013-07-30 21:17:00,79.3,74.0,30.17,North,5,6.0,-999.0,84,-99.99,,,0.00,weatherlink.com 1.10,2013-07-31 01:17:00,
2013-07-30 21:32:00,79.0,74.0,30.17,North,5,3.0,-999.0,84,-99.99,,,0.00,weatherlink.com 1.10,2013-07-31 01:32:00,
2013-07-30 21:47:00,78.8,74.0,30.17,North,5,2.0,-999.0,84,-99.99,,,0.00,weatherlink.com 1.10,2013-07-31 01:47:00,
2013-07-30 22:02:00,78.7,74.0,30.17,North,9,8.0,-999.0,85,-99.99,,,0.00,weatherlink.com 1.10,2013-07-31 02:02:00,
2013-07-30 22:17:00,78.6,74.0,30.17,North,9,9.0,-999.0,85,-99.99,,,0.00,weatherlink.com 1.10,2013-07-31 02:17:00,
2013-07-30 22:32:00,78.4,74.0,30.18,North,5,7.0,-999.0,85,-99.99,,,0.00,weatherlink.com 1.10,2013-07-31 02:32:00,
2013-07-30 22:47:00,78.3,74.0,30.18,North,5,5.0,-999.0,85,-99.99,,,0.00,weatherlink.com 1.10,2013-07-31 02:47:00,
2013-07-30 23:02:00,78.2,74.0,30.17,North,5,5.0,-999.0,86,-99.99,,,0.00,weatherlink.com 1.10,2013-07-31 03:02:00,
2013-07-30 23:17:00,78.2,74.0,30.17,North,5,5.0,-999.0,86,-99.99,,,0.00,weatherlink.com 1.10,2013-07-31 03:17:00,
2013-07-30 23:32:00,77.8,74.0,30.17,North,9,5.0,-999.0,87,-99.99,,,0.00,weatherlink.com 1.10,2013-07-31 03:32:00,
2013-07-30 23:47:00,78.0,74.0,30.17,North,9,5.0,-999.0,87,-99.99,,,0.00,weatherlink.com 1.10,2013-07-31 03:47:00,